Powrót do katalogu

ONEWEB-0661

AktywnyŁącznośćPO
NORAD 55821·PAYLOAD·🇬🇧 United Kingdom

Wystrzelony Mar 9, 2023 z Cape Canaveral Space Force Station

Loading…

Następne Przeloty (najbliższe 24 godziny)

TLE

ŚwieżeSource: CelesTrak SupGP

Epoka: Sep 14, 2026, 18:12 UTC

1 55821C 23029AB  26257.75881944 -.00001250  00000+0 -33763-2 0  2575
2 55821  87.8882 271.8720 0002211  91.0911 303.2133 13.14499124    12

Śledź ONEWEB-0661 w czasie rzeczywistym z AllMySat

Download on the App Store